Theta_e
297 296 296 296 296 296 296 296 296 297 297 297 297 297 297 297 297 297 298 298 298 298 299 302 306 312 316 320 322 323 324 325 324 324 325 325 326 327 328 327 324 321 319 321 325 327 329 331 332 333 332 330 329 330 332 333 333 333 333 331 330 327 325 328 332 334 336 335 335 333 330 328 328 328 327 326 325 325 325 322 321 321 320 318 314
296 296 296 296 296 296 296 296 296 296 296 296 296 296 297 296 297 297 297 297 298 298 298 298 299 302 308 314 318 320 322 324 325 324 324 325 325 326 328 328 326 323 320 320 322 324 329 330 330 332 333 332 331 329 331 334 334 333 333 333 333 330 327 329 332 334 335 335 335 333 331 328 327 328 327 326 324 325 325 323 323 322 321 319 314
296 296 296 295 295 295 295 295 295 295 295 296 296 296 296 296 296 297 297 297 297 297 297 298 298 298 300 305 311 316 320 321 323 325 325 324 324 325 326 327 328 324 320 319 320 321 325 328 329 330 332 334 333 331 331 333 334 334 334 333 334 333 331 330 331 333 334 334 334 332 330 328 327 327 326 326 324 325 325 323 323 322 321 319 314
295 295 295 295 295 295 295 295 295 295 295 295 295 296 296 296 296 296 296 297 297 297 297 297 298 298 298 299 303 309 315 318 320 323 325 325 324 324 324 324 327 326 321 320 320 319 319 324 328 329 331 333 333 332 332 333 333 334 335 334 333 334 333 332 330 332 334 334 334 332 330 328 327 327 326 325 324 325 325 323 323 322 322 320 314
295 295 295 295 295 295 295 295 295 295 295 295 295 295 295 296 296 296 297 296 297 297 297 297 297 298 298 297 298 301 307 313 318 320 322 325 325 325 324 323 325 326 323 322 323 322 319 319 324 329 331 331 332 332 332 332 332 333 335 335 333 334 335 334 330 331 334 334 333 332 330 328 327 327 327 325 324 325 324 323 323 322 322 320 314
295 295 295 295 294 294 294 294 294 294 295 295 295 295 295 295 295 296 296 296 297 297 297 297 297 298 298 297 297 298 300 306 313 317 319 322 325 326 326 325 326 326 325 325 325 324 322 319 319 325 330 331 332 332 331 331 331 331 334 334 333 334 335 334 331 329 332 334 333 332 331 329 327 327 327 325 324 325 324 323 323 322 321 319 316
294 294 294 294 294 294 294 294 294 294 294 294 294 295 295 295 295 295 296 296 297 297 297 297 297 298 298 298 298 297 297 300 305 313 317 319 322 325 326 326 327 326 326 326 327 326 325 321 317 319 325 329 331 331 331 332 333 332 332 332 333 335 336 335 334 330 331 334 333 331 331 329 328 327 327 326 325 324 324 323 322 321 320 317 315
294 294 294 294 294 294 294 294 294 294 294 294 294 294 295 295 295 295 295 296 296 297 297 297 297 297 298 298 298 298 298 298 299 305 313 317 319 322 325 326 327 327 326 326 326 327 326 322 318 317 320 325 329 332 331 331 334 334 333 332 332 335 335 334 336 333 331 333 333 331 330 329 328 327 327 325 325 324 323 322 321 320 318 315 315
293 293 294 294 294 294 294 294 294 294 294 294 294 294 294 294 295 295 295 295 296 296 297 297 297 297 298 298 298 298 298 298 298 299 305 312 317 319 322 325 326 326 327 327 325 326 327 323 318 317 319 321 324 331 333 332 334 334 334 334 332 333 335 336 336 335 333 333 334 332 330 329 328 327 326 325 324 323 322 321 320 318 316 314 315
293 293 293 293 293 293 293 293 293 293 293 293 293 294 294 294 294 294 294 295 295 296 296 296 296 297 298 298 298 298 298 298 298 298 299 305 313 317 320 322 325 325 326 327 326 324 325 324 320 317 318 320 320 327 333 334 335 334 333 334 333 332 335 337 336 335 335 334 334 332 331 330 329 328 326 325 324 322 321 320 319 317 315 314 315
293 293 293 293 293 293 293 293 293 293 293 293 293 293 293 294 294 294 294 294 294 295 295 295 295 296 297 297 297 298 298 298 298 298 298 300 306 313 318 320 322 324 323 326 326 324 323 323 322 319 318 319 318 323 330 333 334 335 334 334 332 331 334 336 336 336 336 336 334 331 331 330 329 328 326 326 324 322 320 320 319 316 314 315 315
292 292 292 292 293 293 292 292 292 292 293 293 293 293 293 293 293 293 293 293 293 293 294 294 294 295 295 296 297 297 298 298 298 299 299 298 300 306 314 317 319 322 323 325 326 325 321 321 322 320 317 318 317 320 327 331 333 333 333 333 332 331 332 334 336 337 336 336 335 332 331 330 329 327 326 325 323 322 320 319 317 313 314 316 316
292 292 292 292 292 292 292 292 292 292 292 292 292 292 293 293 293 292 292 292 292 292 293 294 295 295 295 295 296 297 297 297 298 298 299 299 298 301 307 312 315 320 323 324 325 325 323 321 322 321 319 321 319 319 325 330 333 332 331 333 332 330 331 333 336 337 337 336 335 333 331 330 329 327 326 324 322 321 319 316 314 313 315 316 316
291 291 291 291 291 291 291 291 291 292 292 292 292 292 292 292 292 292 292 291 292 292 292 293 294 295 295 295 296 296 297 297 298 298 298 299 299 299 301 306 311 317 321 323 324 325 324 323 323 321 321 324 322 321 326 330 332 331 331 331 330 329 330 331 334 336 337 336 335 333 331 330 328 326 325 323 321 320 317 315 314 315 317 316 315
291 291 291 291 291 291 291 291 291 291 291 291 291 291 292 292 292 292 291 291 291 292 292 292 293 294 295 296 296 297 298 298 298 298 298 299 299 299 300 301 307 314 320 321 322 324 325 325 325 322 322 324 324 325 329 330 329 329 330 330 328 327 328 330 332 335 336 336 336 333 331 329 327 325 324 322 320 319 317 315 315 316 317 316 315
290 290 290 290 290 290 290 291 291 291 291 291 291 291 291 292 292 291 290 290 291 291 292 292 292 293 295 296 297 298 298 298 298 298 298 298 299 301 303 304 304 310 318 320 321 323 325 325 326 324 321 320 323 327 329 330 329 328 328 330 328 325 326 328 330 333 335 336 335 333 331 329 326 324 323 321 320 319 318 317 317 316 315 315 316
289 289 289 290 290 290 290 290 290 291 291 291 291 291 291 291 291 291 290 289 289 290 290 291 293 293 294 296 297 297 298 298 298 298 298 298 298 300 305 310 310 310 315 319 321 323 325 326 326 326 321 318 321 326 329 329 328 328 327 328 328 325 325 327 328 331 334 336 334 332 330 328 325 323 322 321 320 319 318 317 317 317 313 313 315
289 289 289 289 289 289 290 290 290 290 290 291 291 291 291 291 291 290 289 288 288 289 289 290 291 293 294 295 297 297 298 298 298 298 298 298 298 298 302 309 312 314 316 318 320 322 323 325 326 326 322 319 319 323 328 329 328 327 326 327 328 327 327 327 327 329 332 335 334 332 330 327 324 323 322 321 320 319 318 317 317 316 315 314 315
289 289 289 289 289 289 289 290 290 290 290 290 290 291 291 291 290 290 289 287 286 287 288 289 290 293 295 296 296 297 298 298 298 298 298 298 297 297 298 302 306 311 316 317 318 319 321 323 325 326 323 321 322 323 326 330 329 327 327 327 327 328 328 327 326 328 331 334 334 332 329 326 324 322 321 320 320 318 317 317 318 316 316 315 314
288 288 288 288 289 289 289 289 290 290 290 290 290 291 291 291 290 289 289 287 285 286 287 289 290 291 294 296 296 297 297 297 297 298 299 299 298 298 298 299 299 304 309 313 316 317 318 320 323 326 325 322 323 325 325 328 330 329 328 328 327 327 328 327 327 329 331 333 334 332 328 326 324 322 321 320 319 318 317 318 317 315 315 313 312
288 288 288 288 288 289 289 289 289 289 289 289 290 290 291 290 289 288 287 286 285 285 287 288 289 290 292 294 295 295 295 296 296 298 299 299 299 298 298 299 298 299 302 307 313 315 315 318 320 322 325 323 323 325 325 327 330 330 329 328 327 327 327 327 327 329 332 333 333 330 327 326 324 323 321 320 319 318 317 316 316 315 315 314 313
288 288 288 288 288 288 289 289 289 289 289 289 290 290 290 289 288 286 285 284 284 284 285 286 287 288 290 291 293 294 295 295 296 297 298 298 299 299 299 300 300 299 298 302 308 312 312 314 316 319 322 324 324 325 325 326 328 330 329 328 326 326 326 325 325 327 330 332 332 330 326 324 324 323 322 320 318 317 316 315 316 316 316 315 315
287 287 287 287 287 288 288 288 288 288 289 290 290 290 290 289 287 284 283 282 283 283 283 284 286 287 289 290 291 292 294 295 296 296 296 297 298 299 300 301 301 300 299 299 302 308 310 311 312 316 320 322 324 325 325 324 325 328 329 329 328 326 325 324 324 326 328 330 330 328 325 325 324 323 323 321 317 315 316 316 316 315 314 315 315
287 287 287 287 287 287 288 288 288 288 289 290 290 289 289 288 285 283 282 282 282 282 282 284 286 287 287 289 291 292 293 294 296 296 296 296 297 297 298 299 300 301 300 299 300 303 308 310 311 314 317 320 324 325 326 325 325 326 327 328 328 328 327 325 325 326 327 328 328 326 325 324 324 323 322 320 317 315 316 317 316 315 314 315 314
287 287 287 287 287 287 287 287 288 289 290 290 289 288 287 286 284 283 282 282 281 282 283 284 286 286 286 288 290 292 293 294 296 296 296 296 296 296 297 298 299 300 300 301 301 302 306 309 310 312 315 318 324 325 325 327 327 327 327 327 327 327 328 327 326 326 326 327 327 326 324 324 324 322 320 319 318 315 315 316 316 314 314 314 313
286 286 286 286 286 286 287 287 288 289 290 289 288 287 285 284 283 281 281 280 280 281 282 284 285 285 286 287 289 291 293 294 295 296 295 295 296 297 298 299 299 300 301 301 301 301 305 308 310 312 315 318 323 325 324 325 327 328 328 326 326 326 326 326 327 327 327 327 327 325 324 323 322 320 318 317 316 316 317 316 314 314 314 313 313
286 286 286 286 286 286 287 288 289 289 289 289 287 285 283 281 280 280 279 279 279 280 281 282 282 283 285 286 287 290 293 294 295 296 296 296 296 297 298 299 299 300 302 303 302 301 302 306 309 311 315 319 322 324 325 325 327 328 329 328 327 327 327 328 328 328 328 328 327 324 324 323 321 319 318 316 315 317 318 316 314 315 315 314 315
286 286 286 285 285 286 287 288 289 289 288 288 286 283 281 280 279 279 279 279 279 279 280 280 280 281 283 284 286 288 292 294 295 296 296 296 296 296 297 298 299 302 304 305 305 302 301 305 308 308 312 318 321 323 325 326 327 328 329 329 328 328 328 328 328 328 328 327 325 323 323 323 320 318 317 317 316 318 317 316 316 315 313 314 316
285 285 285 285 285 285 286 287 288 288 287 286 284 282 280 280 279 278 278 278 278 278 278 279 279 280 282 283 285 287 290 293 294 295 296 296 295 295 295 296 297 300 304 304 305 304 302 304 307 308 309 314 318 322 324 325 327 328 328 328 328 329 329 329 329 329 328 326 324 323 322 321 319 317 317 318 317 317 317 316 315 312 311 313 314
285 285 284 284 285 285 286 287 287 287 287 286 284 281 280 279 279 278 277 277 277 278 278 279 280 281 282 283 284 286 289 291 293 294 296 297 295 294 294 295 296 298 302 304 304 303 303 304 306 307 309 312 316 320 322 324 326 326 327 326 326 325 326 326 326 326 325 323 322 322 320 319 318 316 316 317 316 316 316 315 315 312 311 312 313
284 284 284 284 284 284 285 286 286 286 286 285 284 282 280 279 278 277 276 277 277 277 278 279 281 282 282 282 283 285 288 290 292 293 295 296 295 295 295 295 296 298 301 303 304 303 302 303 305 307 308 311 316 319 320 323 325 325 325 325 323 321 321 321 321 320 320 319 319 320 319 318 318 317 315 315 315 316 316 317 316 312 310 312 313
283 283 283 283 283 284 284 285 286 286 285 284 282 280 279 279 277 276 276 276 276 277 278 279 279 279 280 280 282 284 287 289 291 292 294 295 295 295 295 295 296 297 298 299 302 303 302 301 303 306 306 308 313 319 320 321 323 323 324 324 324 322 321 320 319 319 319 318 316 316 316 316 316 316 315 315 315 315 317 317 315 311 309 310 311
282 282 282 283 283 284 284 285 285 285 284 283 280 278 278 278 277 275 275 275 275 276 277 277 277 277 278 280 281 282 285 288 290 291 292 295 295 295 295 295 296 296 296 297 299 302 302 301 301 304 306 305 309 317 322 321 323 323 323 323 324 323 323 322 321 321 320 319 316 312 313 314 314 314 315 317 316 316 317 315 311 310 310 308 308
282 282 282 282 283 283 284 284 284 284 283 282 279 276 276 277 277 275 274 274 275 275 276 276 277 277 278 279 280 281 284 288 290 290 291 294 295 295 295 296 296 297 297 297 298 300 302 302 301 303 305 305 306 314 322 323 323 323 322 322 322 323 324 324 323 321 320 320 315 310 312 314 313 314 316 317 317 316 315 312 309 309 310 309 310
281 281 282 282 283 283 284 284 283 283 282 281 279 276 273 274 276 275 273 274 274 275 275 275 276 276 276 278 279 280 283 287 290 290 291 293 295 295 295 296 297 297 297 297 298 300 301 302 302 303 305 305 305 312 321 324 323 324 322 321 323 324 324 324 323 321 320 321 317 312 314 315 313 314 315 316 316 316 315 313 310 310 311 312 313
281 281 282 282 283 284 284 284 283 283 281 280 279 277 273 272 274 273 272 273 273 274 274 274 275 275 275 277 279 280 282 285 290 291 291 292 294 296 296 296 297 297 297 298 298 300 301 302 303 303 304 305 305 311 321 324 323 324 323 322 323 325 324 323 323 321 320 321 317 312 314 316 315 314 314 314 315 316 317 315 313 312 312 313 314
281 281 282 283 284 284 284 284 283 282 281 278 277 277 274 272 272 272 272 272 273 273 274 274 274 274 275 276 278 280 281 284 288 290 290 291 293 295 296 296 297 297 297 298 298 299 301 303 303 303 304 305 306 312 321 323 323 324 323 324 325 325 324 323 322 320 320 321 317 311 311 316 317 315 313 315 317 318 317 315 314 314 313 313 313
281 282 283 283 284 284 283 283 282 282 280 277 276 277 274 272 271 271 271 272 273 273 274 274 274 274 274 275 277 279 281 283 287 289 290 290 292 294 295 296 296 297 297 297 298 298 299 301 302 303 304 305 306 314 321 323 323 324 324 324 324 324 324 323 321 320 320 322 319 313 312 315 317 315 313 314 316 317 316 315 314 314 313 313 314
282 282 283 284 283 282 282 282 281 280 279 276 275 277 275 271 271 271 271 272 273 273 273 274 274 274 274 274 275 278 280 282 285 288 290 290 291 293 295 295 296 296 296 297 297 298 298 300 302 303 304 304 306 314 321 322 323 324 323 323 322 323 324 323 321 321 321 321 318 314 312 314 317 316 314 313 313 315 316 316 315 314 314 314 314
282 283 283 283 282 281 281 280 280 278 277 275 275 275 273 270 270 271 272 272 273 273 273 274 274 274 274 274 275 278 280 282 284 287 289 290 291 293 294 295 295 295 296 297 297 298 298 300 301 302 303 303 305 312 320 322 323 323 323 323 322 322 322 322 321 320 321 320 317 314 312 313 316 316 314 313 313 314 316 317 316 315 315 315 315
282 282 282 281 281 281 280 279 278 276 275 274 274 272 269 269 270 271 271 272 272 273 273 274 274 274 274 274 275 278 280 282 283 286 288 289 290 291 292 293 295 295 295 296 296 297 298 299 301 302 303 304 304 310 318 322 321 322 323 323 321 319 320 322 320 319 319 318 316 315 313 314 316 317 315 313 313 315 316 317 316 315 315 315 315
282 282 281 281 279 279 278 277 275 273 271 271 271 269 268 270 271 271 272 272 273 273 273 274 274 275 275 275 276 278 280 282 283 285 287 289 290 290 291 293 294 294 295 295 295 295 296 297 299 301 303 304 305 310 318 321 321 322 322 320 319 318 320 320 320 319 318 316 315 315 315 314 316 317 315 313 314 315 316 316 316 315 315 315 315
282 281 281 280 279 277 275 273 271 269 268 268 269 268 269 271 272 272 273 273 273 274 274 274 275 275 275 275 276 277 279 281 283 285 286 288 289 290 291 292 293 294 295 295 294 295 295 296 298 300 304 305 306 311 318 321 321 322 320 318 319 320 320 319 318 318 318 316 314 315 316 315 315 316 316 314 314 315 316 316 316 315 314 314 315
281 281 280 279 277 274 271 268 267 266 266 267 268 269 270 271 272 273 274 274 274 274 275 275 275 275 275 276 276 277 278 281 283 285 286 288 289 290 290 292 293 294 294 295 294 294 294 295 296 299 304 306 307 311 318 321 321 320 319 317 318 319 320 318 317 317 317 315 314 316 317 316 315 316 316 314 314 315 316 316 316 316 316 315 316
281 280 279 277 274 270 267 266 266 265 265 266 267 269 270 271 272 273 274 274 274 275 275 275 276 276 276 276 276 277 279 281 283 284 287 288 289 290 291 291 292 293 294 294 294 294 294 294 295 298 303 307 309 313 318 321 320 319 318 317 316 317 318 317 317 316 315 314 314 315 316 316 315 316 316 315 314 315 316 316 316 317 317 316 316
280 279 277 274 271 268 266 265 265 265 265 266 267 269 270 272 273 274 275 275 276 276 276 276 276 276 276 276 277 277 279 281 283 284 287 288 289 290 291 291 292 293 294 294 294 294 294 294 294 297 301 305 309 314 318 320 321 319 318 317 316 315 316 316 316 316 315 314 313 314 314 314 314 315 316 315 315 315 315 316 317 317 318 317 317
278 276 274 271 269 267 266 265 264 265 265 266 267 269 271 272 273 275 275 276 276 277 277 277 277 277 276 276 277 277 278 281 283 284 286 288 289 290 290 291 292 293 294 294 294 294 294 294 294 297 300 302 306 313 318 320 321 320 319 318 317 316 315 315 315 316 315 314 314 313 312 312 312 314 315 315 315 315 316 316 317 317 317 318 318
276 274 272 270 269 267 266 265 265 265 265 266 267 269 270 272 274 275 276 276 277 278 278 277 277 277 277 277 277 277 278 281 283 284 285 286 288 289 290 291 292 293 293 293 293 294 294 294 294 296 299 301 303 310 317 319 320 321 319 318 317 316 315 314 314 315 316 315 314 313 312 312 311 313 315 314 314 315 315 316 316 316 317 317 317
276 274 271 270 268 267 266 265 265 265 265 266 267 269 271 272 273 275 276 276 277 277 278 278 278 277 277 277 277 277 278 281 283 284 285 286 287 288 289 290 291 292 292 292 293 294 294 294 295 296 299 301 302 307 316 319 320 320 318 316 316 316 315 314 313 314 315 315 314 313 312 311 311 313 314 313 312 313 314 315 315 315 317 317 317
275 273 271 270 268 267 266 266 265 265 266 267 268 269 270 272 273 274 275 276 277 277 278 279 279 278 278 277 278 278 278 280 282 283 284 285 286 287 288 289 290 291 291 291 292 293 294 295 296 297 299 302 302 306 314 319 319 319 318 316 317 316 315 314 314 313 314 314 313 312 311 310 311 312 312 310 310 310 312 313 314 315 316 316 315
274 273 271 269 268 267 266 266 266 266 266 267 268 269 270 272 273 274 275 275 276 276 277 278 279 279 279 279 279 279 280 281 281 283 284 285 286 287 288 289 289 290 291 290 291 292 294 295 296 298 301 304 304 307 314 318 318 319 318 318 318 317 315 315 314 313 312 312 312 312 311 310 311 311 310 309 308 309 311 313 314 315 316 315 314
Wind_Speed
28 29 29 29 29 29 29 30 31 32 33 34 35 36 36 35 36 37 37 38 38 38 39 39 38 39 40 42 42 42 41 40 39 39 39 39 43 46 47 48 49 50 49 47 45 45 45 47 49 50 53 54 55 56 54 53 53 51 51 51 50 48 46 45 46 46 46 46 45 43 41 39 39 37 36 35 34 30 30 32 32 30 29 27 26
27 29 30 32 32 33 32 31 31 31 33 34 35 37 38 38 38 38 38 39 40 40 40 41 41 40 41 43 44 43 42 41 39 40 41 41 42 44 47 48 50 51 52 51 47 46 47 47 48 50 53 55 57 59 58 56 54 53 53 52 50 48 47 47 47 48 48 48 47 46 44 42 41 39 38 37 35 31 30 31 32 30 30 28 26
28 29 30 32 33 35 35 35 34 33 33 34 35 35 37 39 40 40 40 40 41 42 42 42 42 42 42 43 45 45 45 42 41 40 40 43 44 44 46 49 50 52 53 53 51 49 49 48 48 50 52 55 59 61 60 58 55 55 55 53 50 49 49 50 50 50 51 50 49 48 46 44 43 41 40 39 36 33 32 32 32 31 30 28 27
31 31 32 32 34 35 35 36 37 37 36 36 36 36 36 37 39 40 42 43 43 43 43 44 44 44 43 44 46 47 48 46 45 43 41 42 44 46 47 49 52 53 54 55 54 52 51 50 50 50 52 54 58 61 62 60 57 56 57 54 52 51 52 53 52 52 52 52 51 50 48 46 44 43 43 41 37 36 35 33 33 32 30 29 29
32 32 33 34 34 35 36 36 37 38 38 38 39 39 38 38 37 38 40 42 44 45 45 46 46 46 45 44 45 47 49 50 49 48 45 43 42 45 48 50 52 54 56 56 56 55 53 52 52 51 52 53 56 60 62 62 61 60 59 56 54 53 55 56 53 53 53 54 54 53 50 48 47 45 45 44 41 39 37 35 33 32 31 30 29
32 33 33 34 35 35 36 36 37 38 39 39 40 41 41 41 40 39 39 39 41 44 46 48 48 49 49 47 46 46 47 51 52 51 50 48 45 44 46 49 52 54 57 57 57 56 54 54 54 53 54 54 56 60 61 64 66 63 61 59 57 55 57 58 55 54 55 56 57 55 52 51 50 48 47 47 44 40 39 37 34 33 32 32 30
31 32 32 33 34 35 36 37 38 39 39 40 41 41 42 43 43 42 42 40 40 41 43 46 49 50 51 51 50 48 47 49 53 54 53 52 51 48 46 48 52 54 57 58 59 58 56 55 55 56 58 56 56 60 62 63 64 63 63 61 58 57 58 59 57 56 56 58 59 56 54 53 52 51 49 49 45 41 40 37 35 35 33 34 32
30 31 32 33 34 35 36 37 38 40 41 41 42 43 43 43 43 43 43 43 42 41 41 43 46 49 51 53 55 53 51 49 49 54 56 54 54 53 51 49 51 54 56 58 60 60 59 57 55 57 59 59 57 58 61 64 63 61 63 62 58 57 58 58 58 59 60 61 61 58 56 55 53 52 51 49 46 42 40 36 36 36 34 34 33
30 31 32 33 34 35 36 37 39 40 41 42 43 44 44 44 44 42 42 42 42 42 43 43 44 47 49 51 54 56 57 55 51 50 55 58 58 57 56 53 51 52 54 56 60 61 60 59 57 58 60 61 59 58 60 64 65 62 62 62 59 56 56 58 61 61 62 63 63 61 58 56 55 54 52 50 47 43 40 37 37 37 36 35 34
30 30 31 32 33 34 35 37 38 40 42 43 43 44 45 45 45 43 41 40 41 41 41 43 45 47 49 50 52 54 58 60 58 52 51 57 61 59 58 57 52 50 52 55 59 61 61 60 59 58 60 62 61 60 61 63 63 61 60 60 58 55 53 56 61 61 62 65 65 63 61 59 58 56 53 51 48 45 42 38 37 37 37 37 35
30 30 31 31 32 33 34 35 37 39 40 42 43 44 45 45 45 44 42 39 39 39 39 40 43 46 49 51 52 54 55 58 60 59 54 54 60 62 60 60 57 52 51 55 59 61 61 61 60 60 61 62 62 61 62 63 62 61 60 59 57 55 51 53 61 63 64 66 66 65 63 62 60 57 54 51 49 46 43 39 37 39 39 36 35
29 30 31 32 33 34 34 35 37 38 39 41 42 44 45 46 45 44 42 41 39 37 37 37 41 46 49 51 53 54 56 56 59 61 60 56 57 62 64 63 62 58 52 54 60 61 62 61 60 60 61 63 62 61 62 64 63 62 61 59 58 54 49 50 59 64 65 67 68 66 65 64 61 58 55 53 50 47 44 40 39 41 39 36 36
29 30 31 32 33 34 35 36 38 39 40 41 42 44 45 46 45 43 41 41 41 37 34 33 37 45 49 50 52 54 55 56 57 59 61 60 56 59 65 65 64 62 55 52 58 61 61 61 60 60 61 61 62 61 62 63 64 64 61 59 56 53 48 48 55 63 67 68 69 68 66 64 61 59 56 53 51 46 44 42 41 40 38 36 36
29 30 31 32 34 35 36 38 39 41 42 43 44 44 44 44 43 42 41 40 41 39 33 31 34 40 43 47 54 55 54 54 55 56 58 60 56 54 63 67 64 64 58 52 56 60 60 61 61 60 60 59 59 60 62 62 64 66 65 60 55 52 49 46 50 61 68 68 68 69 69 65 62 60 57 54 50 45 43 42 40 39 38 38 38
29 30 32 33 34 36 37 38 39 41 43 44 45 45 45 44 42 42 42 41 41 39 34 31 32 36 35 38 45 47 49 51 50 49 51 54 53 48 55 66 65 63 61 55 54 58 60 61 62 61 61 60 57 59 61 62 64 66 67 65 60 56 51 46 47 58 69 71 69 69 68 66 64 60 57 54 50 45 41 40 40 39 38 38 37
30 31 32 33 34 36 36 37 39 40 42 44 45 45 45 45 43 40 38 38 39 39 35 31 29 31 30 32 35 32 38 44 40 41 46 48 47 41 43 55 62 62 62 59 55 57 59 60 63 64 62 61 59 59 61 63 66 65 66 68 66 61 54 48 46 53 67 70 68 70 67 65 65 60 54 51 48 44 41 40 41 41 40 39 37
32 33 34 35 36 37 38 38 39 40 41 43 45 45 45 44 42 39 35 34 38 40 38 33 28 29 31 34 31 25 32 38 36 39 44 43 42 39 36 41 49 56 62 61 55 54 58 59 62 65 64 62 61 61 62 65 68 68 66 67 69 67 60 54 47 49 63 68 65 69 69 66 65 60 53 48 46 43 41 41 42 41 41 39 39
33 33 33 35 36 37 38 39 40 41 41 43 44 45 46 45 42 39 36 33 33 37 40 37 32 31 34 38 36 32 36 37 34 38 43 44 43 40 38 36 38 45 55 58 52 50 54 59 62 64 65 64 63 63 64 66 69 69 67 65 66 67 64 61 54 49 59 69 69 69 69 68 65 59 53 47 45 44 42 42 43 42 41 39 40
33 33 33 34 35 35 37 38 40 41 42 43 44 44 45 46 44 41 39 35 31 33 37 37 35 32 32 36 42 41 39 38 36 37 40 44 47 44 40 40 38 38 43 47 49 50 53 57 61 65 66 65 64 64 65 66 67 67 66 63 62 62 62 62 61 56 61 73 75 72 71 71 66 57 52 48 46 47 44 43 43 44 43 41 42
34 34 34 34 35 36 36 38 39 41 42 42 43 44 45 45 45 43 42 38 31 31 35 36 37 37 33 32 37 40 40 40 40 39 37 39 46 47 43 42 42 41 40 39 41 46 52 56 59 62 66 67 65 65 66 65 65 65 63 62 61 62 61 60 62 63 69 79 78 74 74 73 66 57 53 50 48 48 46 45 45 44 42 40 40
35 35 35 35 35 36 37 38 40 40 41 42 42 43 44 45 44 43 42 39 31 29 34 37 39 40 39 35 34 37 41 43 41 41 40 38 42 47 43 39 41 43 43 40 37 37 43 52 58 59 61 66 65 65 67 66 64 64 63 61 61 62 61 60 62 61 68 83 80 73 74 71 66 60 54 51 49 48 48 48 46 44 42 40 40
36 36 35 35 36 37 38 39 40 41 41 41 41 42 44 44 43 42 39 37 34 33 36 40 41 43 44 40 38 38 39 42 42 41 40 37 40 45 41 35 39 45 47 45 42 37 34 40 50 57 58 62 64 63 66 66 63 63 64 62 61 62 61 61 63 58 58 77 82 75 72 67 62 58 52 50 50 49 49 49 47 45 45 44 43
38 38 37 36 37 37 38 40 40 41 41 41 42 42 43 44 42 40 37 38 39 39 37 38 39 41 43 42 43 44 42 43 44 41 38 37 38 42 39 32 35 43 46 46 47 47 41 37 40 52 58 60 63 63 63 63 63 64 64 64 63 63 62 60 61 58 52 66 78 75 71 66 59 56 53 52 51 50 50 49 48 46 46 46 45
40 40 39 38 39 39 39 40 40 41 41 41 42 42 43 44 42 39 39 41 41 37 33 34 36 40 42 40 41 44 44 45 45 42 39 38 38 41 41 34 33 39 41 42 45 49 50 42 37 43 53 58 62 61 59 59 62 63 64 66 65 63 62 60 59 60 57 61 72 72 67 65 60 57 56 53 51 51 51 51 50 48 46 46 45
41 41 41 40 40 40 40 40 40 41 42 41 42 42 42 43 43 41 41 41 37 30 28 32 35 37 38 38 39 41 41 41 42 42 41 39 40 44 43 36 35 40 38 37 41 45 50 47 39 39 48 55 58 56 54 56 59 61 64 65 66 65 63 61 60 62 62 64 71 70 64 63 61 58 57 55 52 51 51 52 52 50 48 47 46
43 43 42 42 42 42 42 41 40 41 42 42 42 42 41 41 42 42 41 39 33 28 31 36 38 35 34 36 38 38 39 38 39 43 44 41 41 43 40 34 35 40 37 36 38 41 48 45 35 36 47 54 56 54 52 54 56 60 64 65 65 65 63 61 62 63 65 69 73 71 64 61 59 57 58 57 53 51 52 53 53 50 47 46 47
44 43 43 43 43 43 43 43 42 41 41 41 42 41 39 39 40 41 41 38 32 31 36 39 41 39 37 37 38 38 39 38 38 44 46 43 41 40 37 34 34 36 35 35 37 40 47 45 34 35 45 53 55 54 52 53 55 57 60 62 62 60 60 62 64 65 69 77 79 72 64 60 57 58 59 56 54 55 54 52 52 50 48 47 47
44 44 44 43 43 44 43 43 43 42 41 41 41 41 39 38 39 40 40 36 33 35 38 39 41 41 39 39 39 37 38 37 37 42 46 44 40 39 37 36 36 34 30 30 33 38 45 46 43 42 43 48 53 53 52 52 53 54 54 58 60 58 60 64 66 69 76 81 77 69 64 61 57 58 60 57 57 58 55 52 53 51 49 50 48
45 45 44 44 44 44 44 44 43 43 42 41 41 41 40 40 40 40 40 38 37 39 39 39 39 38 37 39 39 37 36 36 35 38 43 44 40 39 39 39 38 35 31 27 30 37 41 42 44 44 42 44 50 52 51 52 51 48 49 50 51 54 59 66 73 77 79 74 66 62 62 61 60 61 61 59 60 60 56 55 55 52 51 53 51
45 44 44 44 44 44 44 45 44 44 44 43 43 42 41 42 41 40 39 36 35 36 35 34 34 32 35 38 39 39 37 35 34 35 40 44 42 41 41 39 36 36 35 33 34 39 40 39 43 44 39 41 49 52 51 52 49 43 44 47 46 48 55 64 71 74 71 64 61 62 61 61 63 63 62 61 62 61 58 56 56 53 52 54 53
45 44 44 44 44 44 44 45 45 45 46 45 45 45 43 43 43 41 39 34 32 33 32 33 34 33 36 39 40 41 38 35 34 34 37 41 39 37 37 36 35 35 36 36 38 40 39 39 46 50 43 38 45 54 54 55 51 42 41 48 53 55 56 57 60 63 63 62 62 63 62 62 64 62 61 61 61 61 58 57 56 54 53 54 54
45 44 45 44 44 45 45 45 45 45 47 47 47 47 46 45 44 43 41 35 33 35 34 35 38 39 41 40 40 41 40 37 35 32 35 39 36 33 33 34 34 36 36 35 38 43 42 41 47 55 52 40 39 50 58 59 56 47 42 45 50 56 61 61 61 63 64 64 65 64 61 61 64 62 60 60 60 61 60 58 57 55 54 55 55
45 44 45 44 44 45 45 46 47 46 48 48 48 49 49 49 46 44 43 38 35 37 35 35 37 39 39 35 35 38 40 39 35 30 33 38 38 35 35 35 35 36 37 36 39 45 44 43 46 53 57 48 40 46 58 60 59 56 52 48 45 49 58 63 65 67 66 65 67 69 62 59 64 65 62 61 60 61 61 59 58 57 56 56 56
45 45 45 44 44 46 46 47 48 48 49 49 48 49 51 52 48 44 42 39 37 37 36 36 36 36 37 36 36 39 40 39 36 31 30 34 36 35 35 35 35 35 36 37 40 43 44 45 45 48 55 52 44 43 57 62 62 60 57 53 49 50 57 63 66 67 65 64 67 70 65 62 64 65 63 62 61 60 58 56 57 57 56 56 54
45 44 44 44 45 46 48 49 49 50 51 51 50 48 49 52 49 43 41 40 39 38 38 39 38 36 40 43 43 42 40 38 36 32 28 29 32 34 34 34 34 34 36 37 39 41 43 47 45 43 48 51 46 44 56 63 63 61 56 53 53 56 61 65 66 65 63 64 66 66 63 63 64 65 63 62 61 58 56 55 56 56 55 55 53
45 44 44 45 46 48 49 51 50 51 52 51 51 48 47 50 49 44 42 42 41 41 40 40 41 41 43 46 43 40 40 39 36 32 27 25 28 31 32 33 33 34 35 36 38 39 41 46 45 42 44 47 46 45 57 63 62 61 56 53 56 59 63 66 66 63 61 63 65 62 61 63 63 63 62 62 60 58 56 55 56 56 55 54 54
45 45 45 46 48 49 51 52 51 51 52 51 50 49 47 48 47 44 42 41 42 43 42 42 44 44 44 46 43 38 38 39 38 34 29 26 25 28 30 31 30 31 34 36 38 39 40 44 44 42 41 43 44 44 60 66 60 58 56 57 61 62 65 67 65 62 61 63 65 62 61 63 63 61 61 61 60 58 57 57 57 56 55 54 54
45 45 45 46 48 50 50 51 50 51 51 50 48 47 47 46 44 42 40 39 40 42 42 42 44 44 43 45 43 37 38 41 40 36 32 28 25 27 31 33 31 30 33 36 38 38 41 43 43 43 40 39 42 42 57 67 62 60 59 59 63 66 68 67 63 61 62 64 66 63 61 63 64 62 60 60 60 58 58 58 57 56 55 54 54
44 45 46 47 48 49 49 49 49 49 49 48 46 45 45 42 40 39 39 38 39 41 41 42 43 42 41 43 43 39 39 42 42 39 35 31 28 28 32 33 32 30 29 32 33 34 39 43 43 44 43 43 44 40 51 65 64 64 64 61 62 64 67 67 63 62 64 64 62 59 60 62 63 63 60 60 61 60 59 59 57 56 55 54 54
44 45 47 48 48 47 47 47 47 47 46 45 43 43 41 39 37 37 37 36 36 37 38 40 40 39 39 39 40 38 38 41 42 41 37 34 30 28 30 32 32 29 27 28 29 29 33 40 42 44 45 46 48 42 48 63 63 64 67 66 64 63 63 64 64 64 66 65 61 57 57 60 63 63 61 60 62 62 61 59 57 57 57 56 55
44 45 46 46 46 46 46 45 44 43 43 42 40 38 36 35 35 37 37 37 36 36 36 37 38 39 39 40 39 37 37 40 44 45 42 39 34 31 32 34 34 33 30 29 29 28 30 36 40 43 44 46 50 47 48 62 64 64 68 68 66 64 64 65 65 66 67 66 64 61 58 60 65 67 64 64 64 63 61 60 58 58 58 57 56
44 45 46 45 45 45 44 43 41 39 39 39 37 34 32 33 35 37 39 39 40 40 39 38 39 39 40 40 39 36 34 36 41 47 47 43 41 38 36 36 37 36 34 33 33 32 33 35 37 41 45 48 52 50 51 63 66 68 70 69 67 66 65 65 63 65 69 67 65 66 64 63 67 68 67 67 66 65 63 61 60 60 60 59 57
44 44 45 45 44 43 43 41 39 39 38 37 35 33 32 33 34 36 38 38 39 41 42 42 41 41 39 38 37 36 34 33 35 41 46 45 44 42 39 39 40 38 37 37 37 36 37 38 38 38 45 53 55 52 57 67 67 70 72 70 67 66 65 65 61 62 68 69 66 67 67 66 68 68 68 69 68 67 65 63 62 61 60 60 59
43 44 44 45 45 43 41 40 38 38 39 37 34 33 33 33 33 35 36 37 38 39 40 41 42 41 40 37 37 38 36 33 31 34 39 43 43 42 40 40 41 41 41 41 41 41 41 43 42 38 42 54 58 55 62 70 68 68 71 69 69 70 69 68 67 67 71 72 68 66 67 67 67 67 69 70 70 68 66 65 63 60 60 61 60
43 44 45 45 44 41 40 38 37 36 37 36 33 33 33 33 33 34 36 37 39 39 38 40 42 42 40 37 37 38 35 31 30 31 34 37 38 39 38 39 40 41 42 42 43 44 44 46 47 42 40 50 60 61 66 73 70 68 69 69 71 74 73 72 72 73 75 75 72 68 66 67 68 68 69 70 69 68 68 65 62 60 60 61 59
43 44 44 43 42 39 38 37 36 36 37 34 33 34 35 34 34 34 36 37 39 40 39 41 44 43 41 39 38 38 34 31 30 30 30 31 33 35 37 38 40 41 42 43 45 46 46 47 50 48 41 44 57 65 69 75 75 73 73 74 75 76 76 75 73 73 75 78 76 70 66 68 69 67 68 69 68 68 69 66 60 58 58 59 61
43 42 41 41 40 38 37 36 36 37 37 34 33 34 34 33 32 33 34 36 38 38 38 40 42 42 41 40 39 39 36 33 33 31 29 28 30 32 35 38 41 44 45 48 48 47 47 47 49 52 47 41 49 62 71 77 79 79 80 81 81 78 74 70 66 67 73 76 76 71 67 71 73 67 66 68 67 66 67 65 58 55 56 58 62
41 40 39 39 38 38 37 37 37 38 38 35 33 33 32 31 30 31 34 36 37 37 36 36 37 37 38 38 38 39 38 34 33 33 31 29 29 30 32 35 39 43 46 49 49 47 48 47 46 49 51 45 45 55 71 81 81 81 79 75 72 69 66 62 60 64 70 73 75 72 68 71 73 68 64 66 65 63 63 62 58 53 54 57 60
41 40 39 39 38 38 38 38 38 39 39 36 32 29 28 28 29 30 32 33 33 34 35 35 35 35 37 38 38 39 38 34 31 31 30 30 31 32 32 34 38 43 47 49 50 49 48 46 44 45 50 51 48 51 69 82 82 79 73 65 65 67 66 63 59 63 70 73 74 72 68 70 74 69 64 64 65 63 61 61 59 54 52 56 57
40 39 40 40 40 39 38 38 38 37 37 34 28 24 24 26 29 31 32 32 33 34 35 35 34 34 34 36 37 37 38 36 33 32 32 31 32 33 34 35 38 44 48 48 49 50 47 43 42 44 49 54 52 52 67 81 80 78 74 71 73 74 71 67 64 64 67 71 73 69 64 68 73 70 66 64 62 61 61 61 60 56 54 55 56
39 40 40 41 42 41 40 39 38 36 34 31 28 26 27 29 30 31 32 32 32 31 32 34 34 34 33 33 33 34 36 36 35 35 34 33 33 34 35 36 40 46 49 46 47 49 48 44 41 40 45 54 54 54 67 79 80 80 80 80 82 78 73 72 70 65 61 63 72 72 64 66 73 72 68 65 59 56 60 62 60 59 58 57 57
Wind_Direction
331 329 328 327 326 324 323 321 321 321 320 320 319 317 314 311 308 305 302 298 292 287 281 276 271 268 266 264 265 266 268 270 265 262 265 268 265 260 257 255 252 252 253 250 249 252 250 247 244 239 237 238 238 238 237 235 231 228 229 230 230 229 228 227 225 222 219 218 218 217 215 212 210 208 209 210 208 202 199 206 207 205 206 204 199
330 328 327 326 326 325 325 324 323 323 321 320 320 319 317 314 312 308 306 302 299 295 290 285 279 274 271 267 266 266 267 268 268 265 263 264 266 263 258 257 255 252 253 252 249 249 251 250 248 244 240 238 237 237 236 236 234 231 229 228 226 227 229 227 225 224 221 219 218 217 215 213 211 209 209 210 209 203 197 203 207 205 207 207 202
331 329 328 326 326 325 326 326 325 325 324 323 321 319 317 315 314 311 309 305 302 299 296 292 287 281 276 272 269 267 266 267 268 268 267 264 262 261 259 258 256 253 252 252 251 248 249 250 249 248 243 239 238 237 236 236 234 231 229 228 228 228 229 228 226 225 222 219 217 216 215 213 211 210 209 209 209 203 198 200 204 206 207 209 205
332 330 329 327 326 326 325 325 325 325 325 325 323 321 318 316 314 312 310 307 304 301 299 296 292 289 283 277 272 269 267 267 267 267 270 269 262 259 261 261 259 255 252 251 252 249 247 248 248 249 247 241 238 237 236 235 234 233 231 230 231 231 230 228 226 226 223 218 215 214 214 213 211 211 210 209 208 203 200 200 202 206 206 209 206
330 329 328 327 326 326 325 324 324 324 324 324 324 323 321 319 316 313 310 308 305 302 301 297 293 291 288 283 277 272 269 267 267 266 268 271 267 261 260 262 261 256 252 251 252 251 248 247 247 248 248 244 240 238 235 235 236 235 233 233 233 233 232 229 225 224 224 219 215 212 213 213 212 212 210 208 208 203 200 200 201 205 206 208 205
329 328 327 326 326 325 325 325 324 323 324 324 324 324 324 323 321 318 314 310 306 303 301 298 296 293 290 288 283 277 271 267 266 266 266 267 269 266 261 261 262 258 253 252 252 252 249 247 245 246 247 245 242 239 236 236 236 235 234 235 235 232 229 228 225 224 224 220 214 211 212 214 213 213 210 208 208 203 202 202 201 206 208 207 202
329 328 328 327 326 327 327 326 325 324 324 324 324 324 324 324 324 322 318 315 310 305 301 297 296 294 292 290 288 284 278 270 265 265 264 265 267 268 264 261 261 258 255 253 253 252 251 247 244 244 246 245 243 240 238 237 237 236 236 236 237 233 226 225 227 225 223 219 214 211 211 213 213 212 210 209 207 204 203 202 203 207 208 206 198
329 328 327 327 327 327 327 326 325 325 324 324 325 324 324 323 323 323 320 317 314 309 304 299 295 293 292 291 290 288 284 278 270 264 263 264 265 266 266 264 261 257 254 255 254 252 251 248 244 243 244 245 243 241 240 237 237 237 237 237 238 236 228 227 231 228 223 219 215 212 211 212 212 210 209 207 205 204 202 200 204 206 206 204 193
328 327 326 326 325 325 325 324 323 324 324 324 325 325 325 324 323 323 321 318 315 311 307 303 298 292 289 287 287 288 286 283 278 269 263 262 261 263 265 266 264 257 254 255 254 250 251 250 245 242 243 245 244 242 242 238 235 235 236 236 237 238 233 230 231 227 220 219 215 211 211 210 208 207 207 206 204 203 202 202 204 206 206 202 189
326 324 323 322 322 321 321 321 321 322 322 323 324 324 325 325 323 323 321 317 314 310 306 301 298 295 290 286 282 282 282 283 282 277 268 262 260 260 261 263 266 262 255 254 254 250 249 250 247 244 242 244 244 243 242 239 235 234 234 234 235 237 235 227 226 224 219 218 214 209 208 208 205 206 205 204 202 201 202 201 200 203 204 197 186
324 322 322 320 319 319 319 320 320 319 319 319 321 322 323 324 324 322 320 317 312 309 305 299 294 292 290 287 283 278 277 278 279 279 274 265 259 258 258 259 263 264 258 254 253 250 248 249 249 247 244 243 244 243 241 239 236 235 234 235 234 235 235 227 223 223 219 216 213 208 206 204 202 202 201 200 200 200 202 200 196 200 199 190 184
323 321 321 320 319 319 319 319 319 318 317 317 318 320 322 324 324 322 319 316 313 309 305 300 295 292 290 287 284 280 276 274 273 275 275 271 262 257 256 256 259 262 260 253 251 250 248 249 249 249 247 245 245 244 242 239 236 235 235 235 235 234 235 231 226 223 220 215 211 208 204 200 199 200 199 200 201 201 201 198 197 200 193 185 182
321 320 320 320 319 319 320 320 320 320 319 319 320 321 323 325 323 320 317 314 312 309 304 300 295 293 293 291 287 282 278 275 272 270 271 273 268 259 257 256 257 259 259 253 248 248 249 250 251 250 250 249 247 244 242 239 235 234 234 233 233 234 234 233 228 223 219 214 211 208 204 199 198 199 199 200 201 199 198 196 196 194 187 183 182
319 319 320 320 320 321 322 323 323 323 322 323 323 324 324 324 322 318 314 311 308 306 302 295 289 288 292 293 291 287 282 277 273 269 267 270 271 263 257 256 256 256 257 254 248 246 249 251 251 250 250 250 248 245 240 237 234 233 234 233 233 235 234 233 229 223 219 215 210 206 204 200 197 197 198 198 197 195 193 192 191 186 182 184 182
320 321 321 321 321 322 323 323 324 324 323 323 323 323 323 322 321 317 313 310 307 305 300 292 285 285 288 287 287 292 291 282 275 270 265 267 270 266 258 255 255 254 254 256 252 246 248 251 250 249 249 249 249 245 239 235 234 233 234 234 234 234 234 233 231 226 221 216 211 206 203 200 197 194 195 195 194 193 188 187 186 182 182 182 180
323 323 322 322 322 322 322 322 322 322 321 320 320 320 320 320 319 315 310 306 304 301 298 293 285 280 278 276 279 286 286 282 282 277 266 264 268 267 262 258 256 254 252 254 254 248 247 249 250 248 247 248 248 244 239 235 235 235 235 235 234 233 234 234 232 228 222 215 210 207 202 197 194 192 190 191 191 188 184 183 183 182 182 179 178
324 324 324 323 323 322 322 322 321 321 320 320 319 320 319 318 316 312 303 296 295 294 291 288 283 275 267 265 270 271 270 278 291 285 272 268 267 263 261 259 257 254 251 252 254 250 248 249 249 247 245 245 246 244 239 236 236 237 236 235 233 232 234 234 231 229 224 214 205 204 201 195 192 190 187 187 186 183 181 180 180 182 182 178 178
321 322 321 321 321 321 321 320 320 320 320 319 319 320 319 317 315 309 301 292 289 289 287 284 280 275 268 260 257 260 267 276 287 287 281 276 271 263 255 253 256 253 248 249 250 249 250 249 247 245 243 243 244 243 240 237 236 237 236 235 233 233 234 232 229 229 225 217 207 203 201 195 191 189 185 182 181 181 180 179 179 180 179 176 177
318 318 319 318 318 318 318 318 318 319 319 318 319 318 317 316 313 308 301 292 283 280 283 284 278 273 272 263 255 255 262 269 274 280 285 283 277 272 261 254 257 255 249 250 249 245 245 246 246 245 242 242 243 243 242 239 236 237 237 235 233 232 231 229 229 229 224 217 209 202 199 195 190 187 184 181 180 180 179 177 179 179 178 178 178
318 318 318 318 317 317 316 316 316 316 316 316 316 316 315 313 311 307 300 294 285 277 277 279 275 268 267 264 258 257 260 263 266 267 272 280 280 277 271 264 263 259 254 255 251 246 244 243 244 246 244 241 243 243 242 240 237 237 237 235 233 231 229 227 228 228 219 213 207 200 197 194 189 183 180 180 180 178 178 177 178 178 179 178 176
318 317 317 317 316 315 315 314 314 314 314 314 314 313 312 311 308 304 298 292 284 273 270 270 268 265 264 264 264 265 265 263 261 258 260 269 276 277 277 276 273 267 261 257 253 253 254 248 243 245 246 243 243 242 241 240 237 236 236 234 232 231 230 228 229 230 217 206 203 198 196 193 187 183 180 180 180 179 177 175 175 177 177 175 175
317 316 316 315 314 314 313 313 313 313 313 312 312 311 310 308 305 301 296 287 280 273 269 267 266 265 263 264 266 266 267 263 257 254 256 261 267 272 274 278 280 275 268 261 254 256 267 264 248 242 244 244 242 241 239 239 237 235 234 232 231 231 231 229 231 235 218 201 198 196 192 190 185 182 182 182 181 178 175 174 174 177 176 175 178
317 315 315 314 313 313 312 312 312 312 311 310 310 309 307 305 302 298 290 282 282 282 277 269 267 265 261 261 264 264 264 263 256 251 254 258 262 270 273 277 283 280 275 269 261 256 264 276 262 243 242 244 242 239 237 237 236 234 232 231 231 230 231 230 229 232 221 200 193 190 188 188 184 179 180 183 181 177 174 174 176 177 176 176 178
316 315 315 314 313 313 312 311 311 310 310 309 308 307 305 303 299 294 287 283 286 287 280 269 264 265 263 261 262 262 263 263 257 250 252 257 261 269 274 277 280 280 280 277 269 260 258 268 274 253 243 242 239 235 234 236 236 234 233 232 231 231 231 231 229 228 223 205 191 187 186 186 184 182 180 180 180 178 175 174 177 177 176 177 177
316 315 315 314 313 312 311 310 310 310 309 308 306 305 303 301 298 295 290 289 289 285 274 265 263 266 267 263 259 260 262 263 261 254 252 256 260 265 270 273 274 275 279 279 274 267 258 261 275 265 248 242 239 236 235 236 236 234 233 233 233 232 231 231 229 224 220 211 196 188 186 183 182 184 180 176 179 179 175 176 179 178 178 177 174
316 315 314 313 312 311 310 309 309 308 307 306 305 303 302 299 298 296 293 291 288 278 265 259 257 259 263 265 261 260 261 262 263 259 253 253 256 259 266 270 272 271 272 272 272 269 260 258 271 266 249 242 239 237 238 238 237 235 234 235 234 233 233 231 227 219 214 210 198 186 182 181 180 180 176 177 179 177 177 180 180 178 178 176 173
315 314 313 312 311 310 309 308 308 308 306 306 304 301 300 297 294 292 290 289 285 274 268 265 263 259 259 265 265 263 262 260 263 262 252 249 253 258 265 270 271 270 267 265 265 264 258 254 262 263 246 236 235 236 237 237 235 234 236 238 236 235 234 229 221 215 206 197 191 183 179 180 181 177 176 178 177 176 179 180 178 178 178 175 174
314 313 311 311 310 310 309 309 308 308 306 305 302 299 296 293 290 288 285 282 275 269 270 270 268 264 260 263 266 265 261 258 264 265 253 247 252 257 263 266 267 269 269 263 259 260 257 249 253 263 252 236 231 231 232 230 230 230 231 233 232 230 230 224 215 209 197 186 181 180 178 179 180 178 178 177 176 177 179 177 178 180 177 174 176
313 312 311 310 310 309 309 309 308 308 306 304 301 298 296 293 290 285 281 277 272 269 269 269 270 269 264 262 265 265 261 257 264 267 257 251 252 256 262 264 263 267 269 264 259 257 254 247 248 260 263 248 235 228 227 225 225 226 219 215 214 213 212 207 200 195 190 183 178 178 179 181 180 179 178 176 175 177 177 177 181 182 177 175 176
313 311 311 309 309 309 309 309 308 308 306 304 301 298 295 294 291 287 283 279 275 272 272 273 274 273 267 263 263 261 258 258 264 268 261 254 251 253 258 260 259 264 267 266 263 258 252 246 244 251 262 259 242 232 228 223 221 223 212 193 181 181 185 185 181 179 178 177 177 179 180 181 181 180 178 175 175 177 177 179 183 183 178 176 176
313 312 311 310 310 309 309 308 308 307 306 304 302 298 295 293 289 285 282 275 270 270 269 268 265 262 262 261 261 257 253 259 265 266 262 254 250 253 255 257 256 257 262 264 263 262 255 246 243 244 250 259 248 234 229 224 219 218 209 188 171 165 167 169 170 171 173 173 176 180 181 179 180 181 178 175 176 178 178 180 184 184 179 177 177
314 313 311 311 311 310 309 308 307 306 305 302 300 296 294 292 288 284 281 272 266 267 267 264 261 262 266 267 268 262 254 259 264 264 262 254 249 253 257 261 260 256 260 265 265 266 262 250 247 247 245 254 254 235 226 224 221 215 207 195 181 173 170 170 171 174 175 175 176 180 182 182 181 179 178 176 177 179 180 182 184 182 180 178 178
315 313 312 312 312 311 309 308 307 305 303 300 297 294 292 292 289 284 280 272 266 266 265 266 267 271 273 271 272 266 255 257 263 264 264 255 249 254 258 261 263 259 258 262 262 265 265 256 250 249 247 252 258 236 220 220 220 213 208 207 202 192 183 180 179 179 179 178 177 177 182 186 182 177 178 179 179 181 182 183 183 180 179 179 178
315 314 314 313 313 311 309 307 305 303 301 298 295 292 290 293 291 284 278 272 266 264 264 266 269 273 271 265 264 264 256 254 259 264 264 255 248 253 257 256 258 258 256 257 258 259 264 259 250 250 249 252 259 239 216 216 217 210 206 210 212 208 199 192 188 185 182 180 177 176 179 185 183 178 180 181 181 183 184 183 182 180 179 179 179
316 316 316 314 313 310 307 305 303 301 299 297 294 291 288 291 293 286 279 272 266 264 264 267 268 270 271 268 266 266 261 254 255 260 261 253 248 251 257 257 255 255 254 253 254 254 259 260 252 250 250 251 260 243 215 213 215 207 203 206 209 209 203 196 192 188 184 180 179 178 180 182 182 180 181 182 183 184 184 182 181 180 179 179 181
319 318 317 315 312 309 305 303 301 299 297 295 294 292 287 288 291 287 280 273 268 265 265 267 270 271 274 275 273 270 265 257 252 256 258 252 248 249 255 257 254 256 255 252 253 251 256 260 254 252 250 250 259 243 212 209 212 206 203 202 204 205 199 194 191 187 183 180 178 180 180 179 180 182 182 183 184 185 185 184 182 181 181 181 183
321 320 318 314 310 307 304 302 299 297 296 294 294 293 290 288 288 285 280 274 269 268 268 269 272 275 276 277 277 273 268 260 251 252 257 254 247 244 249 255 255 256 255 254 256 252 254 259 255 252 250 250 259 240 208 204 206 201 199 198 198 199 193 190 188 183 181 181 179 180 182 180 181 184 184 184 186 186 185 184 184 183 183 185 186
322 320 316 312 309 306 304 302 299 298 297 296 295 293 290 288 287 285 282 278 274 273 273 273 275 277 277 278 279 274 267 260 252 250 254 256 249 240 243 251 253 255 256 256 258 257 255 257 254 251 248 248 255 237 204 198 198 191 189 189 189 189 187 185 184 181 182 183 179 180 185 185 184 185 187 186 187 187 186 185 185 184 185 188 189
321 318 315 311 309 307 305 304 302 300 298 296 294 292 290 288 288 286 284 281 279 277 278 278 278 279 278 277 278 274 266 260 253 249 251 254 251 240 241 248 250 254 259 256 258 260 258 256 252 248 246 245 250 236 200 192 192 186 183 179 175 177 180 181 181 182 183 182 179 181 187 189 188 187 187 188 188 188 187 187 187 186 188 191 193
320 317 314 312 310 309 307 305 303 300 298 296 295 293 291 292 292 290 288 285 283 281 281 282 281 282 281 280 279 273 265 259 252 247 247 250 250 245 245 248 248 250 255 253 254 258 257 255 249 246 244 244 248 237 199 185 183 181 181 178 171 171 176 179 181 183 182 180 180 182 187 191 191 188 187 188 188 188 188 189 190 189 191 194 196
319 317 315 313 313 311 309 307 304 302 300 300 299 295 291 291 291 291 291 290 289 288 287 287 286 285 285 286 284 274 264 260 252 245 243 244 246 247 248 249 248 248 252 254 257 261 261 256 248 243 242 241 245 237 201 182 179 178 179 177 172 172 177 179 182 184 182 180 180 182 185 191 192 189 187 187 189 190 190 192 192 191 193 196 198
320 318 318 317 316 315 313 311 310 307 304 303 301 295 287 284 285 284 285 285 285 287 287 289 290 290 288 287 286 279 268 263 255 247 243 243 244 245 247 248 249 249 253 258 262 266 269 264 254 245 239 237 241 233 202 183 181 178 176 175 172 172 175 174 177 183 183 181 181 182 185 191 192 189 187 187 190 193 194 194 193 193 195 198 199
323 322 322 322 321 321 319 317 315 311 307 305 301 293 286 283 281 280 280 278 278 280 282 284 286 288 287 282 280 278 272 266 259 248 244 244 245 246 246 246 249 251 252 256 261 265 269 270 263 251 238 233 236 228 201 186 182 178 175 174 173 171 171 170 171 178 182 182 182 183 185 190 192 190 188 188 191 193 195 195 194 195 196 198 200
327 328 328 328 328 328 325 319 312 307 304 303 299 292 288 286 283 281 280 279 277 277 278 279 280 282 281 276 274 276 270 263 262 254 246 246 248 248 247 247 248 251 251 254 259 263 266 270 268 258 242 233 231 221 199 187 182 178 175 175 174 173 173 173 174 178 182 184 184 183 185 189 193 192 189 190 192 193 195 196 195 197 199 200 202
333 333 334 334 332 330 325 318 310 304 303 300 297 295 293 289 286 284 283 282 280 278 277 276 277 279 278 274 273 275 269 259 260 260 251 248 249 249 248 248 249 251 252 255 259 261 263 267 267 260 246 233 226 215 198 187 183 178 176 176 176 176 176 176 178 179 181 183 184 183 185 189 193 194 191 191 194 195 196 196 197 200 201 201 202
338 338 338 336 333 329 324 318 310 306 307 303 299 298 297 293 289 287 286 285 283 282 281 279 278 278 276 272 270 272 269 258 257 263 258 251 251 251 249 248 248 249 250 252 257 260 261 264 263 257 247 234 225 213 197 188 184 180 178 179 179 180 180 180 181 181 181 183 185 184 184 189 193 195 194 194 195 197 198 197 198 202 204 203 201
342 341 339 336 334 330 326 320 313 309 310 309 303 301 299 297 294 291 289 287 286 286 285 282 279 276 274 272 268 267 266 258 252 256 257 254 254 254 251 250 250 250 251 253 257 260 260 260 259 256 249 239 228 214 197 188 186 185 184 184 182 181 181 179 178 179 180 183 186 184 184 189 193 195 195 197 197 197 199 199 199 203 205 202 197
345 343 340 337 335 333 329 325 321 318 318 315 310 306 303 300 299 298 297 294 291 290 288 284 279 275 271 269 265 263 262 258 252 251 253 255 257 257 254 252 252 254 255 257 259 262 262 258 256 255 251 243 234 217 199 190 188 187 185 182 179 176 175 172 173 178 180 182 186 187 186 188 192 194 195 197 197 197 200 201 200 203 205 199 193
347 345 342 339 337 335 332 330 327 324 322 319 314 309 306 304 303 303 302 300 296 296 295 290 283 280 275 269 264 262 259 256 254 254 253 255 257 257 256 254 254 256 258 261 262 263 264 259 254 256 252 242 237 223 202 192 190 187 181 175 173 174 174 171 172 177 180 182 186 189 188 187 190 193 194 195 197 199 201 202 200 203 206 200 195
349 347 344 341 340 338 335 333 331 325 321 322 325 322 316 312 309 307 307 305 301 302 305 300 289 283 281 272 263 261 259 254 253 254 253 254 257 257 256 255 256 258 259 262 265 265 265 262 258 260 252 237 234 226 205 192 189 186 181 177 178 178 175 174 175 177 180 183 185 186 187 187 188 191 192 193 197 201 203 202 201 203 204 199 196
351 349 347 344 341 340 337 336 334 329 325 330 338 333 321 313 310 308 308 308 305 304 309 310 298 287 284 277 266 261 260 256 253 252 252 254 255 255 255 255 255 257 259 262 266 267 267 266 266 265 249 232 229 223 204 191 188 188 187 185 183 180 177 178 178 176 177 183 187 187 187 187 187 190 192 191 193 201 204 203 202 204 203 198 196